Погода в Бикмурзине

Россия / Пензенская область     52°46′53″N   46°48′58″E
темп.,
°C
ветер,
м/с
пор.,
м/с
влажн.,
%
обл.,
%
осадки,
мм/ч
давл.,
гПа
погр.,
м
16 мая, вс
вс1600:00+18ююв4135592 0.0 1016223
03:00+16ююв4116083 0.0 1016168
06:00+17ююв4964100 0.0 1017164
09:00+22ююв584763 0.0 1017383
12:00+26ю693840 0.0 1017976
15:00+27ю593896 0.0 10171784
18:00+25ююв33525 0.0 101648
21:00+20вюв12555 0.0 101611
17 мая, пн
пн1700:00+19юв335261 0.0 101624
03:00+18ююв335551 0.0 101732
06:00+18ююв246458 0.0 101873
09:00+25ю354399 0.0 1018346
12:00+28ююв563093 0.0 10181404
15:00+28ююв362838 0.0 10172937
18:00+25юв344857 0.0 101779
21:00+20юв344836 0.0 101745
18 мая, вт
вт1800:00+18вюв334499 0.0 101720
03:00+17вюв45435 0.0 101756
06:00+18вюв49566 0.0 1017184
09:00+23вюв610425 0.0 1016440
12:00+26юв68379 0.0 1016845
15:00+29вюв58315 0.0 10152536
18:00+24в410535 0.0 1015219
21:00+20вюв513475 0.0 1015186
19 мая, ср
ср1900:00+18в511484 0.0 1015147
03:00+17в512490 0.0 1014164
06:00+18в515555 0.0 1014303
09:00+23вюв712465 0.0 1013553
12:00+27юв811395 0.0 10131343
15:00+28вюв811385 0.0 10113348
18:00+17з268275 0.7 1013186
21:00+16в338381 1.9 101247
20 мая, чт
чт2000:00+15ююв41285100 0.7 1013391
03:00+14ююв6119374 0.7 1013392
06:00+15ююв598982 0.1 1014473
09:00+17ю686341 0.1 10151026
12:00+20ю7104915 0.0 10152203
15:00+17ююз7106341 0.0 10161069
18:00+17юз610663 0.1 10161156
21:00+13ю357538 0.1 101769